| time (UTC) | temp F | wind direction | speed MPH | gust MPH | rain 1hr in | rain 24hr in | rain mn in | humidity % | barometer mb |
| 20260504034503 | 58 | 0 | 0.0 | 0.0 | 0.00 | 0.42 | 0.34 | 98 | 1009.1 |
| 20260504033814 | 58 | 180 | 0.0 | 2.0 | 0.00 | 0.42 | 0.34 | 98 | 1009.1 |
| 20260504032703 | 58 | 180 | 0.0 | 3.0 | 0.00 | 0.42 | 0.34 | 98 | 1009.1 |
| 20260504032015 | 58 | 180 | 0.0 | 3.0 | 0.00 | 0.42 | 0.34 | 98 | 1009.1 |
| 20260504030903 | 58 | 0 | 0.0 | 0.0 | 0.00 | 0.42 | 0.34 | 98 | 1010.1 |
| 20260504030005 | 58 | 180 | 0.0 | 4.0 | 0.00 | 0.42 | 0.34 | 98 | 1010.1 |
| 20260504025405 | 58 | 180 | 0.0 | 3.0 | 0.00 | 0.42 | 0.34 | 98 | 1009.1 |
| 20260504024503 | 58 | 180 | 0.0 | 1.0 | 0.00 | 0.42 | 0.34 | 98 | 1009.1 |
| 20260504023603 | 58 | 202 | 0.0 | 1.0 | 0.00 | 0.42 | 0.34 | 98 | 1010.1 |
| 20260504022703 | 59 | 202 | 1.0 | 1.0 | 0.00 | 0.42 | 0.34 | 98 | 1010.1 |
| 20260504021805 | 58 | 0 | 0.0 | 0.0 | 0.00 | 0.42 | 0.34 | 98 | 1010.1 |
| 20260504020904 | 58 | 0 | 0.0 | 0.0 | 0.00 | 0.42 | 0.34 | 98 | 1009.1 |
| 20260504020213 | 58 | 0 | 0.0 | 0.0 | 0.00 | 0.42 | 0.34 | 98 | 1009.1 |
| 20260504015403 | 58 | 0 | 0.0 | 0.0 | 0.04 | 0.42 | 0.34 | 98 | 1009.1 |
| 20260504014503 | 58 | 0 | 0.0 | 0.0 | 0.09 | 0.42 | 0.34 | 98 | 1009.1 |
| 20260504013814 | 58 | 0 | 0.0 | 0.0 | 0.13 | 0.42 | 0.34 | 98 | 1010.1 |
| 20260504012705 | 58 | 0 | 0.0 | 0.0 | 0.34 | 0.42 | 0.34 | 98 | 1010.1 |
| 20260504011803 | 58 | 0 | 0.0 | 0.0 | 0.34 | 0.42 | 0.34 | 98 | 1009.1 |
| 20260504011113 | 58 | 0 | 0.0 | 0.0 | 0.34 | 0.42 | 0.34 | 98 | 1009.1 |
| 20260504010003 | 58 | 0 | 0.0 | 0.0 | 0.34 | 0.42 | 0.34 | 98 | 1009.1 |
| 20260504005405 | 58 | 0 | 0.0 | 0.0 | 0.30 | 0.38 | 0.30 | 98 | 1010.1 |
| 20260504004503 | 58 | 0 | 0.0 | 0.0 | 0.25 | 0.33 | 0.25 | 98 | 1010.1 |
| 20260504003603 | 58 | 0 | 0.0 | 0.0 | 0.21 | 0.29 | 0.21 | 98 | 1009.1 |
| 20260504002705 | 58 | 0 | 0.0 | 0.0 | 0.00 | 0.08 | 0.00 | 98 | 1009.1 |
| 20260504001803 | 58 | 0 | 0.0 | 0.0 | 0.00 | 0.08 | 0.00 | 98 | 1009.1 |
| 20260504000906 | 58 | 0 | 0.0 | 0.0 | 0.00 | 0.08 | 0.00 | 98 | 1009.1 |
| 20260504000003 | 58 | 0 | 0.0 | 0.0 | 0.00 | 0.08 | 0.00 | 98 | 1009.1 |
| 20260503235403 | 58 | 0 | 0.0 | 0.0 | 0.00 | 0.08 | 0.00 | 98 | 1009.1 |
| 20260503234503 | 58 | 0 | 0.0 | 0.0 | 0.00 | 0.08 | 0.00 | 98 | 1009.1 |
| 20260503233813 | 58 | 0 | 0.0 | 0.0 | 0.00 | 0.08 | 0.00 | 98 | 1010.1 |
| 20260503232705 | 58 | 0 | 0.0 | 0.0 | 0.00 | 0.08 | 0.00 | 98 | 1010.1 |
| 20260503231803 | 58 | 0 | 0.0 | 0.0 | 0.00 | 0.08 | 0.00 | 98 | 1010.1 |
| 20260503230905 | 58 | 0 | 0.0 | 0.0 | 0.00 | 0.08 | 0.00 | 98 | 1010.1 |
| 20260503230006 | 58 | 0 | 0.0 | 0.0 | 0.00 | 0.08 | 0.00 | 98 | 1010.1 |
| 20260503225403 | 58 | 0 | 0.0 | 0.0 | 0.00 | 0.08 | 0.00 | 98 | 1010.1 |
| 20260503224503 | 58 | 0 | 0.0 | 0.0 | 0.00 | 0.08 | 0.00 | 98 | 1010.1 |
| 20260503223603 | 59 | 0 | 0.0 | 0.0 | 0.00 | 0.08 | 0.00 | 98 | 1010.1 |
| 20260503222703 | 59 | 0 | 0.0 | 0.0 | 0.00 | 0.08 | 0.00 | 98 | 1010.1 |
| 20260503221804 | 59 | 0 | 0.0 | 0.0 | 0.00 | 0.08 | 0.00 | 98 | 1010.1 |
| 20260503220903 | 59 | 0 | 0.0 | 0.0 | 0.00 | 0.08 | 0.00 | 98 | 1010.1 |
| 20260503220004 | 60 | 0 | 0.0 | 0.0 | 0.00 | 0.08 | 0.00 | 98 | 1010.1 |
| 20260503215403 | 60 | 0 | 0.0 | 0.0 | 0.04 | 0.08 | 0.08 | 98 | 1010.1 |
| 20260503214503 | 60 | 0 | 0.0 | 0.0 | 0.04 | 0.08 | 0.08 | 98 | 1010.1 |
| 20260503213605 | 60 | 0 | 0.0 | 0.0 | 0.04 | 0.08 | 0.08 | 98 | 1011.1 |
| 20260503212915 | 60 | 0 | 0.0 | 0.0 | 0.04 | 0.08 | 0.08 | 98 | 1011.1 |
| 20260503211803 | 60 | 0 | 0.0 | 0.0 | 0.04 | 0.08 | 0.08 | 98 | 1011.1 |
| 20260503210903 | 61 | 0 | 0.0 | 0.0 | 0.08 | 0.08 | 0.08 | 98 | 1011.1 |
| 20260503210005 | 61 | 0 | 0.0 | 0.0 | 0.08 | 0.08 | 0.08 | 98 | 1011.1 |
| 20260503205403 | 61 | 0 | 0.0 | 0.0 | 0.04 | 0.04 | 0.04 | 98 | 1010.1 |
| 20260503204503 | 61 | 0 | 0.0 | 0.0 | 0.04 | 0.04 | 0.04 | 98 | 1010.1 |
| 20260503203603 | 61 | 0 | 0.0 | 0.0 | 0.04 | 0.04 | 0.04 | 98 | 1010.1 |
| 20260503202703 | 61 | 0 | 0.0 | 0.0 | 0.04 | 0.04 | 0.04 | 98 | 1010.1 |
| 20260503201804 | 61 | 0 | 0.0 | 0.0 | 0.04 | 0.04 | 0.04 | 98 | 1010.1 |
| 20260503200903 | 62 | 0 | 0.0 | 0.0 | 0.00 | 0.00 | 0.00 | 98 | 1010.1 |
| 20260503200215 | 62 | 0 | 0.0 | 0.0 | 0.00 | 0.00 | 0.00 | 97 | 1010.1 |
| 20260503195406 | 61 | 0 | 0.0 | 0.0 | 0.00 | 0.00 | 0.00 | 97 | 1009.1 |
| 20260503194503 | 62 | 0 | 0.0 | 0.0 | 0.00 | 0.00 | 0.00 | 96 | 1009.1 |
| 20260503193603 | 62 | 0 | 0.0 | 0.0 | 0.00 | 0.00 | 0.00 | 96 | 1009.1 |
| 20260503192703 | 62 | 0 | 0.0 | 0.0 | 0.00 | 0.00 | 0.00 | 96 | 1009.1 |
| 20260503191803 | 62 | 0 | 0.0 | 0.0 | 0.00 | 0.00 | 0.00 | 95 | 1009.1 |
| 20260503190903 | 62 | 0 | 0.0 | 0.0 | 0.00 | 0.00 | 0.00 | 95 | 1009.1 |
| 20260503190005 | 62 | 0 | 0.0 | 0.0 | 0.00 | 0.00 | 0.00 | 94 | 1009.1 |
| 20260503185405 | 62 | 0 | 0.0 | 0.0 | 0.00 | 0.00 | 0.00 | 94 | 1009.1 |
| 20260503184503 | 63 | 0 | 0.0 | 0.0 | 0.00 | 0.00 | 0.00 | 93 | 1009.1 |
| 20260503183603 | 63 | 0 | 0.0 | 0.0 | 0.00 | 0.00 | 0.00 | 93 | 1009.1 |
| 20260503182912 | 63 | 0 | 0.0 | 0.0 | 0.00 | 0.00 | 0.00 | 93 | 1009.1 |
| 20260503181804 | 63 | 0 | 0.0 | 0.0 | 0.00 | 0.00 | 0.00 | 92 | 1009.1 |
| 20260503180905 | 63 | 0 | 0.0 | 0.0 | 0.00 | 0.00 | 0.00 | 92 | 1009.1 |
| 20260503180004 | 64 | 0 | 0.0 | 0.0 | 0.00 | 0.00 | 0.00 | 92 | 1009.1 |
| 20260503175614 | 64 | 0 | 0.0 | 0.0 | 0.00 | 0.00 | 0.00 | 92 | 1009.1 |
| 20260503174506 | 64 | 0 | 0.0 | 0.0 | 0.00 | 0.00 | 0.00 | 92 | 1009.1 |
| 20260503173815 | 64 | 0 | 0.0 | 0.0 | 0.00 | 0.00 | 0.00 | 91 | 1009.1 |
| 20260503172703 | 64 | 0 | 0.0 | 0.0 | 0.00 | 0.04 | 0.00 | 91 | 1009.1 |
| 20260503171803 | 64 | 0 | 0.0 | 0.0 | 0.00 | 0.04 | 0.00 | 90 | 1009.1 |
| 20260503170905 | 64 | 0 | 0.0 | 0.0 | 0.00 | 0.04 | 0.00 | 90 | 1009.1 |
| 20260503150903 | 65 | 225 | 0.0 | 2.0 | 0.00 | 0.04 | 0.00 | 88 | 1010.1 |
| 20260503130903 | 69 | 0 | 0.0 | 0.0 | 0.00 | 0.16 | 0.00 | 84 | 1010.1 |
| 20260503090213 | 64 | 0 | 0.0 | 0.0 | 0.00 | 0.16 | 0.00 | 98 | 1012.1 |
| 20260503081113 | 62 | 0 | 0.0 | 0.0 | 0.00 | 0.16 | 0.00 | 98 | 1012.1 |
| 20260503072703 | 59 | 0 | 0.0 | 0.0 | 0.00 | 0.16 | 0.00 | 98 | 1012.1 |
| 20260503071805 | 59 | 0 | 0.0 | 0.0 | 0.00 | 0.16 | 0.00 | 98 | 1012.1 |
| 20260503070903 | 58 | 0 | 0.0 | 0.0 | 0.00 | 0.16 | 0.00 | 98 | 1011.1 |
| 20260503054503 | 52 | 0 | 0.0 | 0.0 | 0.00 | 0.16 | 0.00 | 98 | 1011.1 |
| 20260503053603 | 52 | 0 | 0.0 | 0.0 | 0.00 | 0.16 | 0.00 | 98 | 1011.1 |
| 20260503052703 | 52 | 0 | 0.0 | 0.0 | 0.00 | 0.16 | 0.00 | 98 | 1011.1 |
| 20260503052013 | 52 | 0 | 0.0 | 0.0 | 0.00 | 0.16 | 0.00 | 98 | 1011.1 |
| 20260503050903 | 52 | 0 | 0.0 | 0.0 | 0.00 | 0.16 | 0.00 | 98 | 1011.1 |
| 20260503050005 | 52 | 0 | 0.0 | 0.0 | 0.00 | 0.16 | 0.00 | 98 | 1011.1 |
| 20260503045405 | 52 | 0 | 0.0 | 0.0 | 0.00 | 0.16 | 0.00 | 98 | 1011.1 |
| 20260503044505 | 52 | 0 | 0.0 | 0.0 | 0.00 | 0.16 | 0.00 | 98 | 1011.1 |
| 20260503043814 | 52 | 0 | 0.0 | 0.0 | 0.00 | 0.16 | 0.00 | 98 | 1011.1 |
| 20260503042703 | 52 | 0 | 0.0 | 0.0 | 0.00 | 0.16 | 0.00 | 98 | 1011.1 |
| 20260503041805 | 52 | 0 | 0.0 | 0.0 | 0.00 | 0.16 | 0.00 | 98 | 1011.1 |
| 20260503040903 | 52 | 0 | 0.0 | 0.0 | 0.00 | 0.16 | 0.00 | 98 | 1011.1 |
| 20260503040213 | 53 | 0 | 0.0 | 0.0 | 0.00 | 0.16 | 0.00 | 98 | 1011.1 |
| 20260503035614 | 53 | 0 | 0.0 | 0.0 | 0.00 | 0.16 | 0.00 | 98 | 1011.1 |